Location: Penton Mewsey
(51.2167°N, 1.5167°W)
Time: 04:31:25
(UTC+00:00)

SL-8 R/B - Pass Details

Date: 09 August 2020
Orbit: 657 x 667 km, 48.4° (Epoch: 22 September)

Event Time Altitude Azimuth Distance (km) Brightness Sun altitude
Rises 20:48:13 0° 279° (W) 3,006 8.2 -9.9°
Reaches altitude 10° 20:51:06 10° 262° (W) 2,090 6.9 -10.3°
Maximum altitude 20:54:32 20° 217° (SW) 1,544 5.5 -10.7°
Drops below altitude 10° 20:57:58 10° 171° (S) 2,083 5.8 -11.1°
Enters shadow 20:58:12 - 169° (S) 2,147 5.8 -11.1°
